Regional Weather Roundup
Issued by NWS

Home | Current Version | Previous Version | Text Only | Print | Product List | Glossary On
Versions: 1 2 3 4 5 6 7 8 9 10 11 12 13 14 15 16 17 18 19 20 21 22 23 24 25 26 27
000
ASUS45 KCYS 241610
RWRWY

WYOMING REGIONAL WEATHER ROUNDUP
NATIONAL WEATHER SERVICE CHEYENNE WY
900 AM MST FRI FEB 24 2017

NOTE:  "FAIR" INDICATES FEW OR NO CLOUDS BELOW 12,000 FEET
WITH NO SIGNIFICANT WEATHER AND/OR OBSTRUCTIONS TO VISIBILITY.

WYZ001-241700-
YELLOWSTONE NATIONAL PARK

CITY           SKY/WX    TMP DP  RH WIND       PRES   REMARKS
LK YELLOWSTONE   N/A      6   4  91 CALM      29.83R
W YELLOWSTONE  NOT AVBL

$$
WYZ002>013-054>058-071-098>099-241700-
NORTHERN WYOMING

CITY           SKY/WX    TMP DP  RH WIND       PRES   REMARKS
JACKSON        MOSUNNY   14  10  85 SW8       29.88R WCI   3
CODY           LGT SNOW  20  16  84 SW5       29.93R FOG     WCI  13
GREYBULL       LGT SNOW  23  21  92 S6        29.97R FOG     WCI  16
WORLAND        CLOUDY    22  21  96 CALM      29.96R FOG
SHERIDAN       CLOUDY    22  15  75 S7        29.97R WCI  13
BUFFALO        LGT SNOW  22  16  78 S9        29.93R WCI  12
GILLETTE       CLOUDY    22  18  85 SE6       29.97R FOG     WCI  14
HULETT         CLOUDY    23  18  80 MISG      30.00S
NEWCASTLE      LGT SNOW  21  19  93 S10       30.01R WCI  10

$$
WYZ014>020-022>026-101>103-241700-
CENTRAL WYOMING

CITY           SKY/WX    TMP DP  RH WIND       PRES   REMARKS
BIG PINEY      CLOUDY    12   8  84 S6        29.86R WCI   3
PINEDALE       CLOUDY    14  10  85 W7        29.85S HAZE    WCI   4
DUBOIS         LGT SNOW  12   9  85 CALM      29.82R
LANDER         PTSUNNY   18  14  84 CALM      29.91R
RIVERTON       CLOUDY    15  15 100 S5        29.92R WCI   8
CASPER         CLOUDY    15  13  91 SE3       29.93R FOG
DOUGLAS        CLOUDY    15  12  88 SE5       29.97R FOG     WCI   8

$$
WYZ021-027>030-104>119-241700-
SOUTHERN WYOMING

CITY           SKY/WX    TMP DP  RH WIND       PRES   REMARKS
EVANSTON       CLOUDY    13   7  77 W13       29.88R WCI  -2
FORT BRIDGER   CLOUDY    14  13  92 W13       29.90R WCI   0
ROCK SPRINGS   LGT SNOW  14  11  87 SW5       29.88R FOG     WCI   6
DIXON          LGT SNOW  15   9  78 W9        29.90R WCI   3
RAWLINS        LGT SNOW  13   7  77 NE13      29.83R WCI  -2
SARATOGA       CLOUDY    14   9  79 W15       29.81R WCI  -1
LARAMIE        CLOUDY    10   6  84 W3        29.80S
CHEYENNE       LGT SNOW  15  10  80 NE5       29.89R WCI   8
TORRINGTON     LGT SNOW  19  15  84 CALM      29.99R FOG
PINE BLUFFS    CLOUDY    18  14  86 N7        29.95R WCI   8

$$




USA.gov is the U.S. government's official web portal to all federal, state and local government web resources and services.